Time,TemperatureF,DewpointF,PressureIn,WindDirection,WindDirectionDegrees,WindSpeedMPH,WindSpeedGustMPH,Humidity,HourlyPrecipIn,Conditions,Clouds,dailyrainin,SoftwareType,DateUTC
2013-01-08 00:02:00,32.0,29.0,-100.00,NE,35,2.0,4.0,88,-99.99,,,-99.99,,2013-01-08 08:02:00,
2013-01-08 00:11:00,31.0,28.0,-100.00,NE,45,1.0,3.0,89,-99.99,,,-99.99,,2013-01-08 08:11:00,
2013-01-08 00:22:00,31.0,28.0,-100.00,NE,41,1.0,3.0,90,-99.99,,,-99.99,,2013-01-08 08:22:00,
2013-01-08 00:32:00,30.0,27.0,-100.00,NE,47,2.0,5.0,90,-99.99,,,-99.99,,2013-01-08 08:32:00,
2013-01-08 00:42:00,31.0,29.0,-100.00,ESE,102,2.0,5.0,93,-99.99,,,-99.99,,2013-01-08 08:42:00,
2013-01-08 00:52:00,33.0,29.0,-100.00,ENE,65,3.0,5.0,85,-99.99,,,-99.99,,2013-01-08 08:52:00,
2013-01-08 01:02:00,32.0,28.0,-100.00,NE,56,2.0,3.0,86,-99.99,,,-99.99,,2013-01-08 09:02:00,
2013-01-08 01:12:00,31.0,28.0,-100.00,ENE,76,1.0,3.0,87,-99.99,,,-99.99,,2013-01-08 09:12:00,
2013-01-08 01:22:00,31.0,28.0,-100.00,ENE,62,2.0,4.0,90,-99.99,,,-99.99,,2013-01-08 09:22:00,
2013-01-08 01:32:00,30.0,28.0,-100.00,ENE,73,0.0,3.0,89,-99.99,,,-99.99,,2013-01-08 09:32:00,
2013-01-08 01:42:00,29.0,26.0,-100.00,NNW,329,1.0,3.0,89,-99.99,,,-99.99,,2013-01-08 09:42:00,
2013-01-08 01:52:00,29.0,27.0,-100.00,East,88,2.0,3.0,91,-99.99,,,-99.99,,2013-01-08 09:52:00,
2013-01-08 02:02:00,29.0,27.0,-100.00,NE,51,1.0,3.0,92,-99.99,,,-99.99,,2013-01-08 10:02:00,
2013-01-08 02:12:00,29.0,27.0,-100.00,NNE,32,0.0,2.0,92,-99.99,,,-99.99,,2013-01-08 10:12:00,
2013-01-08 02:22:00,28.0,26.0,-100.00,North,0,1.0,3.0,93,-99.99,,,-99.99,,2013-01-08 10:22:00,
2013-01-08 02:32:00,28.0,27.0,-100.00,NE,52,1.0,4.0,94,-99.99,,,-99.99,,2013-01-08 10:32:00,
2013-01-08 02:42:00,28.0,27.0,-100.00,NNE,28,3.0,5.0,94,-99.99,,,-99.99,,2013-01-08 10:42:00,
2013-01-08 02:52:00,28.0,27.0,-100.00,NE,37,3.0,5.0,94,-99.99,,,-99.99,,2013-01-08 10:52:00,
2013-01-08 03:02:00,27.0,26.0,-100.00,NE,34,2.0,5.0,94,-99.99,,,-99.99,,2013-01-08 11:02:00,
2013-01-08 03:12:00,27.0,26.0,-100.00,NNE,25,2.0,3.0,94,-99.99,,,-99.99,,2013-01-08 11:12:00,
2013-01-08 03:22:00,28.0,27.0,-100.00,NE,42,4.0,6.0,95,-99.99,,,-99.99,,2013-01-08 11:22:00,
2013-01-08 03:32:00,27.0,26.0,-100.00,NNE,32,4.0,6.0,94,-99.99,,,-99.99,,2013-01-08 11:32:00,
2013-01-08 03:42:00,27.0,26.0,-100.00,NNE,32,4.0,6.0,94,-99.99,,,-99.99,,2013-01-08 11:42:00,
2013-01-08 03:53:00,27.0,26.0,-100.00,NNE,20,3.0,4.0,94,-99.99,,,-99.99,,2013-01-08 11:53:00,
2013-01-08 04:02:00,27.0,26.0,-100.00,NNE,20,3.0,4.0,94,-99.99,,,-99.99,,2013-01-08 12:02:00,
2013-01-08 04:12:00,26.0,25.0,-100.00,NNE,21,1.0,2.0,94,-99.99,,,-99.99,,2013-01-08 12:12:00,
2013-01-08 04:22:00,26.0,25.0,-100.00,NNE,27,1.0,3.0,94,-99.99,,,-99.99,,2013-01-08 12:22:00,
2013-01-08 04:32:00,26.0,25.0,-100.00,NNE,31,2.0,4.0,94,-99.99,,,-99.99,,2013-01-08 12:32:00,
2013-01-08 04:42:00,27.0,26.0,-100.00,NE,49,1.0,4.0,95,-99.99,,,-99.99,,2013-01-08 12:42:00,
2013-01-08 04:53:00,27.0,26.0,-100.00,ENE,71,0.0,2.0,95,-99.99,,,-99.99,,2013-01-08 12:53:00,
2013-01-08 05:02:00,26.0,25.0,-100.00,NE,42,2.0,5.0,95,-99.99,,,-99.99,,2013-01-08 13:02:00,
2013-01-08 05:12:00,26.0,25.0,-100.00,SSE,152,0.0,2.0,94,-99.99,,,-99.99,,2013-01-08 13:12:00,
2013-01-08 05:22:00,27.0,26.0,-100.00,ENE,65,1.0,3.0,95,-99.99,,,-99.99,,2013-01-08 13:22:00,
2013-01-08 05:32:00,27.0,26.0,-100.00,NNE,32,3.0,6.0,95,-99.99,,,-99.99,,2013-01-08 13:32:00,
2013-01-08 05:42:00,27.0,26.0,-100.00,NE,34,4.0,6.0,95,-99.99,,,-99.99,,2013-01-08 13:42:00,
2013-01-08 05:52:00,27.0,26.0,-100.00,NE,38,2.0,4.0,95,-99.99,,,-99.99,,2013-01-08 13:52:00,
2013-01-08 06:02:00,27.0,26.0,-100.00,NE,40,1.0,4.0,95,-99.99,,,-99.99,,2013-01-08 14:02:00,
2013-01-08 06:12:00,26.0,25.0,-100.00,ENE,62,1.0,4.0,94,-99.99,,,-99.99,,2013-01-08 14:12:00,
2013-01-08 06:22:00,26.0,25.0,-100.00,NE,56,0.0,3.0,95,-99.99,,,-99.99,,2013-01-08 14:22:00,
2013-01-08 06:33:00,26.0,25.0,-100.00,NE,38,1.0,3.0,95,-99.99,,,-99.99,,2013-01-08 14:33:00,
2013-01-08 06:42:00,26.0,25.0,-100.00,NNE,32,2.0,5.0,95,-99.99,,,-99.99,,2013-01-08 14:42:00,
2013-01-08 06:53:00,26.0,25.0,-100.00,NE,44,1.0,4.0,95,-99.99,,,-99.99,,2013-01-08 14:53:00,
2013-01-08 07:02:00,26.0,25.0,-100.00,NNE,32,2.0,4.0,95,-99.99,,,-99.99,,2013-01-08 15:02:00,
2013-01-08 07:12:00,26.0,25.0,-100.00,ENE,69,1.0,3.0,95,-99.99,,,-99.99,,2013-01-08 15:12:00,
2013-01-08 07:22:00,25.0,24.0,-100.00,NNE,21,2.0,4.0,95,-99.99,,,-99.99,,2013-01-08 15:22:00,
2013-01-08 07:33:00,26.0,25.0,-100.00,NE,40,2.0,4.0,96,-99.99,,,-99.99,,2013-01-08 15:33:00,
2013-01-08 07:42:00,26.0,25.0,-100.00,NE,38,2.0,4.0,95,-99.99,,,-99.99,,2013-01-08 15:42:00,
2013-01-08 07:52:00,26.0,25.0,-100.00,NNE,25,3.0,5.0,95,-99.99,,,-99.99,,2013-01-08 15:52:00,
2013-01-08 08:02:00,26.0,25.0,-100.00,NNE,25,3.0,5.0,95,-99.99,,,-99.99,,2013-01-08 16:02:00,
2013-01-08 08:12:00,26.0,25.0,-100.00,ENE,69,1.0,3.0,96,-99.99,,,-99.99,,2013-01-08 16:12:00,
2013-01-08 08:22:00,26.0,25.0,-100.00,NE,45,1.0,3.0,95,-99.99,,,-99.99,,2013-01-08 16:22:00,
2013-01-08 08:33:00,26.0,25.0,-100.00,East,85,2.0,4.0,96,-99.99,,,-99.99,,2013-01-08 16:33:00,
2013-01-08 08:42:00,26.0,25.0,-100.00,East,95,1.0,3.0,95,-99.99,,,-99.99,,2013-01-08 16:42:00,
2013-01-08 08:52:00,27.0,26.0,-100.00,NNE,28,3.0,4.0,96,-99.99,,,-99.99,,2013-01-08 16:52:00,
2013-01-08 09:02:00,27.0,26.0,-100.00,NE,51,2.0,4.0,95,-99.99,,,-99.99,,2013-01-08 17:02:00,
2013-01-08 09:12:00,27.0,26.0,-100.00,NE,49,1.0,2.0,95,-99.99,,,-99.99,,2013-01-08 17:12:00,
2013-01-08 09:22:00,28.0,27.0,-100.00,NE,52,1.0,2.0,96,-99.99,,,-99.99,,2013-01-08 17:22:00,
2013-01-08 09:33:00,30.0,28.0,-100.00,NE,54,1.0,3.0,94,-99.99,,,-99.99,,2013-01-08 17:33:00,
2013-01-08 09:42:00,31.0,28.0,-100.00,NE,56,1.0,3.0,89,-99.99,,,-99.99,,2013-01-08 17:42:00,
2013-01-08 09:53:00,32.0,28.0,-100.00,NNE,24,1.0,2.0,88,-99.99,,,-99.99,,2013-01-08 17:53:00,
2013-01-08 10:03:00,32.0,28.0,-100.00,NNE,24,1.0,2.0,88,-99.99,,,-99.99,,2013-01-08 18:03:00,
2013-01-08 10:12:00,35.0,30.0,-100.00,West,280,0.0,1.0,82,-99.99,,,-99.99,,2013-01-08 18:12:00,
2013-01-08 10:22:00,37.0,30.0,-100.00,ESE,112,0.0,2.0,77,-99.99,,,-99.99,,2013-01-08 18:22:00,
2013-01-08 10:33:00,36.0,30.0,-100.00,SSW,213,1.0,3.0,77,-99.99,,,-99.99,,2013-01-08 18:33:00,
2013-01-08 10:43:00,38.0,30.0,-100.00,SSW,205,1.0,3.0,73,-99.99,,,-99.99,,2013-01-08 18:43:00,
2013-01-08 10:52:00,39.0,30.0,-100.00,SW,217,1.0,3.0,71,-99.99,,,-99.99,,2013-01-08 18:52:00,
2013-01-08 11:02:00,38.0,30.0,-100.00,WSW,243,1.0,3.0,72,-99.99,,,-99.99,,2013-01-08 19:02:00,
2013-01-08 11:12:00,37.0,31.0,-100.00,WSW,250,3.0,6.0,80,-99.99,,,-99.99,,2013-01-08 19:12:00,
2013-01-08 11:22:00,37.0,33.0,-100.00,WSW,250,5.0,7.0,84,-99.99,,,-99.99,,2013-01-08 19:22:00,
2013-01-08 11:32:00,37.0,33.0,-100.00,WSW,248,4.0,7.0,84,-99.99,,,-99.99,,2013-01-08 19:32:00,
2013-01-08 11:42:00,38.0,33.0,-100.00,WSW,251,3.0,5.0,82,-99.99,,,-99.99,,2013-01-08 19:42:00,
2013-01-08 11:53:00,38.0,33.0,-100.00,WSW,250,3.0,5.0,82,-99.99,,,-99.99,,2013-01-08 19:53:00,
2013-01-08 12:02:00,38.0,33.0,-100.00,WSW,253,3.0,4.0,81,-99.99,,,-99.99,,2013-01-08 20:02:00,
2013-01-08 12:12:00,40.0,33.0,-100.00,SW,236,1.0,4.0,77,-99.99,,,-99.99,,2013-01-08 20:12:00,
2013-01-08 12:22:00,40.0,33.0,-100.00,South,189,2.0,4.0,75,-99.99,,,-99.99,,2013-01-08 20:22:00,
2013-01-08 12:32:00,40.0,33.0,-100.00,WSW,241,2.0,4.0,77,-99.99,,,-99.99,,2013-01-08 20:32:00,
2013-01-08 12:43:00,40.0,33.0,-100.00,WSW,244,2.0,3.0,77,-99.99,,,-99.99,,2013-01-08 20:43:00,
2013-01-08 12:53:00,41.0,33.0,-100.00,SW,236,2.0,3.0,75,-99.99,,,-99.99,,2013-01-08 20:53:00,
2013-01-08 13:02:00,41.0,33.0,-100.00,SSW,209,2.0,5.0,74,-99.99,,,-99.99,,2013-01-08 21:02:00,
2013-01-08 13:12:00,41.0,33.0,-100.00,SSW,209,2.0,5.0,74,-99.99,,,-99.99,,2013-01-08 21:12:00,
2013-01-08 13:22:00,40.0,33.0,-100.00,WSW,248,3.0,5.0,76,-99.99,,,-99.99,,2013-01-08 21:22:00,
2013-01-08 13:33:00,41.0,33.0,-100.00,SSW,212,2.0,4.0,74,-99.99,,,-99.99,,2013-01-08 21:33:00,
2013-01-08 13:43:00,41.0,33.0,-100.00,SSW,212,2.0,4.0,74,-99.99,,,-99.99,,2013-01-08 21:43:00,
2013-01-08 13:53:00,43.0,33.0,-100.00,SSE,158,1.0,3.0,68,-99.99,,,-99.99,,2013-01-08 21:53:00,
2013-01-08 14:02:00,43.0,33.0,-100.00,SSE,168,3.0,5.0,68,-99.99,,,-99.99,,2013-01-08 22:02:00,
2013-01-08 14:12:00,43.0,34.0,-100.00,South,176,3.0,6.0,71,-99.99,,,-99.99,,2013-01-08 22:12:00,
2013-01-08 14:22:00,41.0,33.0,-100.00,SW,227,3.0,6.0,73,-99.99,,,-99.99,,2013-01-08 22:22:00,
2013-01-08 14:32:00,41.0,32.0,-100.00,SW,229,3.0,5.0,71,-99.99,,,-99.99,,2013-01-08 22:32:00,
2013-01-08 14:42:00,42.0,33.0,-100.00,SW,230,2.0,5.0,70,-99.99,,,-99.99,,2013-01-08 22:42:00,
2013-01-08 14:52:00,44.0,33.0,-100.00,SSW,196,1.0,3.0,66,-99.99,,,-99.99,,2013-01-08 22:52:00,
2013-01-08 15:02:00,44.0,32.0,-100.00,South,181,2.0,3.0,63,-99.99,,,-99.99,,2013-01-08 23:02:00,
2013-01-08 15:12:00,44.0,33.0,-100.00,SSW,195,2.0,3.0,64,-99.99,,,-99.99,,2013-01-08 23:12:00,
2013-01-08 15:22:00,43.0,32.0,-100.00,SW,227,1.0,3.0,66,-99.99,,,-99.99,,2013-01-08 23:22:00,
2013-01-08 15:32:00,43.0,32.0,-100.00,WSW,256,1.0,2.0,64,-99.99,,,-99.99,,2013-01-08 23:32:00,
2013-01-08 15:42:00,43.0,32.0,-100.00,WSW,250,2.0,4.0,65,-99.99,,,-99.99,,2013-01-08 23:42:00,
2013-01-08 15:52:00,43.0,35.0,-100.00,SSW,209,2.0,4.0,72,-99.99,,,-99.99,,2013-01-08 23:52:00,
2013-01-08 16:02:00,43.0,35.0,-100.00,SSW,209,2.0,4.0,72,-99.99,,,-99.99,,2013-01-09 00:02:00,
2013-01-08 16:12:00,43.0,35.0,-100.00,SW,215,1.0,3.0,73,-99.99,,,-99.99,,2013-01-09 00:12:00,
2013-01-08 16:22:00,42.0,34.0,-100.00,SW,219,1.0,3.0,73,-99.99,,,-99.99,,2013-01-09 00:22:00,
2013-01-08 16:32:00,43.0,34.0,-100.00,SW,216,2.0,2.0,72,-99.99,,,-99.99,,2013-01-09 00:32:00,
2013-01-08 16:42:00,42.0,34.0,-100.00,SW,236,0.0,2.0,73,-99.99,,,-99.99,,2013-01-09 00:42:00,
2013-01-08 16:52:00,41.0,34.0,-100.00,West,271,1.0,3.0,75,-99.99,,,-99.99,,2013-01-09 00:52:00,
2013-01-08 17:02:00,41.0,34.0,-100.00,West,271,0.0,2.0,76,-99.99,,,-99.99,,2013-01-09 01:02:00,
2013-01-08 17:12:00,38.0,32.0,-100.00,NNE,17,0.0,3.0,79,-99.99,,,-99.99,,2013-01-09 01:12:00,
2013-01-08 17:22:00,38.0,32.0,-100.00,NNE,17,0.0,3.0,79,-99.99,,,-99.99,,2013-01-09 01:22:00,
2013-01-08 17:32:00,36.0,32.0,-100.00,NE,35,2.0,4.0,85,-99.99,,,-99.99,,2013-01-09 01:32:00,
2013-01-08 17:42:00,36.0,32.0,-100.00,NE,35,2.0,4.0,85,-99.99,,,-99.99,,2013-01-09 01:42:00,
2013-01-08 17:52:00,35.0,32.0,-100.00,NE,51,2.0,3.0,87,-99.99,,,-99.99,,2013-01-09 01:52:00,
2013-01-08 18:02:00,35.0,32.0,-100.00,NE,51,2.0,3.0,87,-99.99,,,-99.99,,2013-01-09 02:02:00,
2013-01-08 18:12:00,34.0,31.0,-100.00,NE,45,4.0,6.0,88,-99.99,,,-99.99,,2013-01-09 02:12:00,
2013-01-08 18:22:00,33.0,30.0,-100.00,ENE,61,1.0,5.0,87,-99.99,,,-99.99,,2013-01-09 02:22:00,
2013-01-08 18:32:00,33.0,29.0,-100.00,NE,42,2.0,4.0,87,-99.99,,,-99.99,,2013-01-09 02:32:00,
2013-01-08 18:42:00,33.0,29.0,-100.00,NE,34,1.0,4.0,86,-99.99,,,-99.99,,2013-01-09 02:42:00,
2013-01-08 18:52:00,32.0,28.0,-100.00,NNE,25,1.0,3.0,86,-99.99,,,-99.99,,2013-01-09 02:52:00,
2013-01-08 19:02:00,32.0,28.0,-100.00,ENE,59,1.0,3.0,86,-99.99,,,-99.99,,2013-01-09 03:02:00,
2013-01-08 19:12:00,32.0,28.0,-100.00,NE,45,2.0,4.0,85,-99.99,,,-99.99,,2013-01-09 03:12:00,
2013-01-08 19:22:00,31.0,27.0,-100.00,NE,38,1.0,4.0,85,-99.99,,,-99.99,,2013-01-09 03:22:00,
2013-01-08 19:32:00,31.0,27.0,-100.00,NNE,32,2.0,5.0,86,-99.99,,,-99.99,,2013-01-09 03:32:00,
2013-01-08 19:42:00,30.0,26.0,-100.00,NNE,27,2.0,4.0,86,-99.99,,,-99.99,,2013-01-09 03:42:00,
2013-01-08 19:52:00,31.0,28.0,-100.00,NE,45,2.0,4.0,87,-99.99,,,-99.99,,2013-01-09 03:52:00,
2013-01-08 20:02:00,31.0,28.0,-100.00,NE,42,2.0,3.0,87,-99.99,,,-99.99,,2013-01-09 04:02:00,
2013-01-08 20:12:00,30.0,27.0,-100.00,NNE,28,3.0,5.0,88,-99.99,,,-99.99,,2013-01-09 04:12:00,
2013-01-08 20:22:00,30.0,27.0,-100.00,NNE,28,3.0,5.0,88,-99.99,,,-99.99,,2013-01-09 04:22:00,
2013-01-08 20:32:00,29.0,26.0,-100.00,NE,35,2.0,4.0,89,-99.99,,,-99.99,,2013-01-09 04:32:00,
2013-01-08 20:42:00,30.0,27.0,-100.00,NE,47,1.0,4.0,90,-99.99,,,-99.99,,2013-01-09 04:42:00,
2013-01-08 20:52:00,29.0,26.0,-100.00,NNE,23,3.0,4.0,89,-99.99,,,-99.99,,2013-01-09 04:52:00,
2013-01-08 21:03:00,29.0,26.0,-100.00,NNE,30,2.0,4.0,89,-99.99,,,-99.99,,2013-01-09 05:03:00,
2013-01-08 21:12:00,29.0,26.0,-100.00,NE,38,1.0,3.0,89,-99.99,,,-99.99,,2013-01-09 05:12:00,
2013-01-08 21:22:00,28.0,25.0,-100.00,NNE,23,2.0,4.0,89,-99.99,,,-99.99,,2013-01-09 05:22:00,
2013-01-08 21:33:00,28.0,25.0,-100.00,NNE,20,2.0,4.0,89,-99.99,,,-99.99,,2013-01-09 05:33:00,
2013-01-08 21:42:00,28.0,25.0,-100.00,NE,41,3.0,3.0,88,-99.99,,,-99.99,,2013-01-09 05:42:00,
2013-01-08 21:52:00,28.0,25.0,-100.00,NNE,31,3.0,5.0,87,-99.99,,,-99.99,,2013-01-09 05:52:00,
2013-01-08 22:02:00,28.0,25.0,-100.00,NNE,31,3.0,5.0,88,-99.99,,,-99.99,,2013-01-09 06:02:00,
2013-01-08 22:12:00,28.0,25.0,-100.00,NE,35,2.0,3.0,88,-99.99,,,-99.99,,2013-01-09 06:12:00,
2013-01-08 22:22:00,28.0,25.0,-100.00,NNE,32,2.0,4.0,88,-99.99,,,-99.99,,2013-01-09 06:22:00,
2013-01-08 22:32:00,28.0,25.0,-100.00,NE,56,1.0,4.0,89,-99.99,,,-99.99,,2013-01-09 06:32:00,
2013-01-08 22:42:00,28.0,25.0,-100.00,NE,47,2.0,5.0,88,-99.99,,,-99.99,,2013-01-09 06:42:00,
2013-01-08 22:52:00,28.0,25.0,-100.00,NE,35,2.0,3.0,88,-99.99,,,-99.99,,2013-01-09 06:52:00,
2013-01-08 23:02:00,27.0,24.0,-100.00,NE,35,2.0,4.0,89,-99.99,,,-99.99,,2013-01-09 07:02:00,
2013-01-08 23:11:00,27.0,24.0,-100.00,NE,38,3.0,4.0,89,-99.99,,,-99.99,,2013-01-09 07:11:00,
2013-01-08 23:22:00,27.0,24.0,-100.00,NE,38,3.0,4.0,89,-99.99,,,-99.99,,2013-01-09 07:22:00,
2013-01-08 23:32:00,27.0,24.0,-100.00,ENE,68,0.0,3.0,89,-99.99,,,-99.99,,2013-01-09 07:32:00,
2013-01-08 23:42:00,26.0,23.0,-100.00,NNE,25,3.0,4.0,89,-99.99,,,-99.99,,2013-01-09 07:42:00,
2013-01-08 23:52:00,27.0,24.0,-100.00,NE,35,3.0,4.0,89,-99.99,,,-99.99,,2013-01-09 07:52:00,